Simultaneous Nadir Overpasses (SNOs) Predictions

Prediction of SNOs between METOP-A and NOAA-19 Satellite Orbit:

Table of predicted SNOs for the next 14.0 days since TLE Epoch: 7/24/2021
Index Date (METOP-A) Time (METOP-A) Lat,Lon (METOP-A) SZA (METOP-A ) Date (NOAA-19) Time (NOAA-19) Lat,Lon (NOAA-19) SZA (NOAA-19 ) Distance(km) Time Diff (sec)
1 07/28/2021 10:36:59 80.76, 27.09 61.87 07/28/2021 10:35:44 80.76, 27.16 61.87 1.35 75
2 07/28/2021 11:27:40 -80.76,-165.60 118.13 07/28/2021 11:26:50 -80.76,-165.78 118.14 3.09 50
3 07/28/2021 12:18:20 80.77, 1.93 61.90 07/28/2021 12:17:44 80.76, 1.77 61.89 3.22 36
4 07/28/2021 13:09:01 -80.77, 169.24 118.09 07/28/2021 13:08:49 -80.77, 169.19 118.10 1.03 12
5 07/28/2021 13:59:42 80.76, -23.56 61.91 07/28/2021 13:59:44 80.77, -23.63 61.91 1.20 2
6 07/28/2021 14:50:22 -80.76, 143.75 118.09 07/28/2021 14:50:48 -80.77, 143.80 118.08 1.27 26
7 07/28/2021 15:41:02 80.78, -48.72 61.94 07/28/2021 15:41:42 80.78, -48.66 61.94 1.06 40



Historial Predications of SNOs between METOP-A and NOAA-19
